sat.trackr.live / text

‹ back to catalog

KUIPER-00031

NORAD 63744 · 2025-088W

PAYLOAD ACTIVE UNKNOWN

§ Identity

Operator
Country
US
Launch date
2025-04-28
Launch site
AFETR
Launch vehicle
Mass (kg)
RCS (m²)

External: N2YO · Heavens-Above · Gunter

§ Orbital elements

Epoch: 2026-05-25T05:00:47.170656Z

Period
97.54 min
Inclination
51.9000°
Eccentricity
0.0001634
Mean motion
14.76381756 rev/d
Perigee alt
639.6 km
Apogee alt
641.9 km
Semi-major
7,018.9 km
B*
2.5271e-4
RAAN
115.8556°
Arg perigee
45.0059°
Mean anomaly
315.1034°
Rev number
5,890

§ Raw data

KUIPER-000311 63744U 25088W   26145.20887929  .00001557  00000+0  25271-3 0  99972 63744  51.9000 115.8556 0001634  45.0059 315.1034 14.76381756 58906

JSON: /api/v1/satellites/63744 · /tle

For live sub-satellite position, see the globe view (requires WebGL).

§ Visibility from observer

Set your observer location to see the next 7 days of passes ≥ 10°. The values pass through the URL so the page stays shareable.

No JS? Fill the form by hand. The geolocation button needs JavaScript.